Regional Weather Roundup
Issued by NWS

Home | Current Version | Previous Version | Graphics & Text | Print | Product List | Glossary On
Versions: 1 2 3 4 5 6 7 8 9 10 11 12 13 14 15 16 17 18 19 20 21 22 23 24 25 26 27 28 29 30 31 32 33 34 35 36 37 38 39 40 41 42 43 44 45 46 47 48 49 50
000
ASUS45 KBOU 050007
RWRCO

WEATHER ROUNDUP FOR COLORADO
NATIONAL WEATHER SERVICE DENVER/BOULDER CO
600 PM MDT MON MAY 04 2015

NOTE: "FAIR" INDICATES FEW OR NO CLOUDS BELOW 12000 FEET WITH NO
SIGNIFICANT WEATHER AND/OR OBSTRUCTIONS TO VISIBILITY.

COZ001>005-013-030-031-050100-
...NORTHWEST COLORADO...

CITY           SKY/WX    TMP DP  RH WIND       PRES   REMARKS
CRAIG          CLOUDY    65  36  34 N7        29.99S
HAYDEN         NOT AVBL
MEEKER         PTSUNNY   62  36  37 W3        29.99S
MOUNT WERNER   NOT AVBL
STEAMBOAT SPGS CLOUDY    55  39  53 NE17      30.02F
WALDEN         CLOUDY    52  37  58 NW12      30.10S
$$

COZ006>008-011-050100-
...WEST CENTRAL VALLEYS...

CITY           SKY/WX    TMP DP  RH WIND       PRES   REMARKS
GRAND JUNCTION CLOUDY    65  41  41 E6        29.88F
MONTROSE       CLOUDY    67  34  29 NE3       29.95S
EAGLE          PTSUNNY   57  41  54 E15G24    30.01R
RIFLE          CLOUDY    63  43  48 NE3       29.94S
DELTA          CLOUDY    70  34  26 W6        29.91S
NUCLA          CLOUDY    61  39  44 S17G31    30.02R
$$

COZ017>023-064>068-050100-
...SOUTHWEST COLORADO...

CITY           SKY/WX    TMP DP  RH WIND       PRES   REMARKS
DURANGO        CLOUDY    59  39  47 SW23G32   29.98R
CORTEZ         MOSUNNY   60  42  51 NE15      29.95R
PAGOSA SPRINGS CLOUDY    56  33  42 NW5       30.02F
TELLURIDE      CLOUDY    42  38  83 W5        30.12S
WOLF CREEK PAS NOT AVBL
$$

COZ009-010-012-014-032>034-037-058>063-050100-
...CENTRAL COLORADO...

CITY           SKY/WX    TMP DP  RH WIND       PRES   REMARKS
ASPEN          CLOUDY    53  38  56 E3        30.04F
BUENA VISTA    NOT AVBL
COPPER MTN     CLOUDY    37  30  75 W6        30.26F THUNDER
BERTHOUD PASS  HAZE      30  21  69 E12G20    30.30F THUNDER VSB<1/4
COTTONWOOD PAS TSTM      43  37  81 SE13      30.16R
GUNNISON       PTSUNNY   55  30  38 SW3       30.06S
KREMMLING      PTSUNNY   55  34  44 N5        30.04S
LEADVILLE      CLOUDY    47  29  49 N10       30.13F
MONARCH PASS   FOG       36  34  93 NE20      30.32F VSB<1/4
SALIDA         CLOUDY    54  42  64 SE18G30   30.12R
SUNLIGHT       CLOUDY    37  34  87 S3        30.23R
WILKERSON PASS PTSUNNY   34  32  93 SE5       30.26F WCI  30
$$

COZ069>075-050100-
...SAN LUIS VALLEY/SANGRE DE CRISTO MOUNTAINS...

CITY           SKY/WX    TMP DP  RH WIND       PRES   REMARKS
ALAMOSA        CLOUDY    60  33  36 S10       30.00F
LA VETA PASS   FOG       39  37  93 MISG      30.18S VSB<1/4
SAGUACHE       PTSUNNY   61  32  33 W8        30.03S
$$

COZ035-036-038>040-050100-
...NORTHERN COLORADO FRONT RANGE...

CITY           SKY/WX    TMP DP  RH WIND       PRES   REMARKS
DENVER INTL AP CLOUDY    57  47  69 E18       30.04S
DMNS CITY PARK   N/A     54  51  90 W8G14     30.05S
AURORA         TSTM      54  51  87 E14       30.06R
FRONT RANGE AP CLOUDY    57  50  77 E14G21    30.06S
ERIE MUNI ARPT RAIN      54  52  92 NE3       30.07R
BOULDER MUN AP RAIN      54  50  87 NW9       30.07S
CENTENNIAL     TSTM      53  50  89 E8        30.06R FOG
BROOMFIELD     LGT RAIN  54  50  87 N6        30.08R
FORT COLLINS   CLOUDY    57  46  67 CALM      30.08S
LONGMONT       CLOUDY    56  50  80 NW5       30.09R
$$

COZ041-046-047-076>085-087-088-050100-
...PIKES PEAK/PALMER DIVIDE AND SOUTHERN FOOTHILLS...

CITY           SKY/WX    TMP DP  RH WIND       PRES   REMARKS
COLO. SPRINGS  CLOUDY    59  46  62 SE15      30.06S THUNDER
A. F. ACADEMY  CLOUDY    56  45  64 VRB3      30.07S
ELLICOTT       CLOUDY   N/A N/A N/A SE18      30.05F
FALCON         LGT RAIN  53  47  79 NE3       30.10S
FORT CARSON    LGT RAIN  59  48  67 S18       30.03F
LIMON          CLOUDY    57  46  67 E15       30.06S
MONUMENT HILL  TSTM      45  43  93 E5        30.12R
TRINIDAD       LGT RAIN  51  49  92 N7        30.05F
$$

COZ042>045-048>051-090-091-050100-
...NORTHEAST COLORADO...

CITY           SKY/WX    TMP DP  RH WIND       PRES   REMARKS
GREELEY ARPT   PTSUNNY   59  45  58 E14       30.06S
AKRON          CLOUDY    53  46  77 E15       30.09R
BURLINGTON     CLOUDY    61  48  62 E12       30.06R
WRAY           CLOUDY    54  46  76 NE10      30.10R
STERLING       PTSUNNY   55  45  67 E12G20    30.08R
HOLYOKE        NOT AVBL
FORT MORGAN    PTSUNNY   58  -8   6 E14       30.08R
$$

COZ086-089-092>099-050100-
...SOUTHEAST COLORADO...

CITY           SKY/WX    TMP DP  RH WIND       PRES   REMARKS
PUEBLO         CLOUDY    64  47  53 SE9       29.99S
LA JUNTA       TSTM      55  51  86 SW23      30.04R FOG
LAMAR          LGT RAIN  57  53  86 S17       29.98R
SPRINGFIELD      N/A     58  52  80 S3        29.99F
$$


USA.gov is the U.S. government's official web portal to all federal, state and local government web resources and services.